Flag for U.S.A. Weather past 2 weeks in Reston, Virginia, U.S.A.

Now
70 °F

Fog.


Feels Like: 65 °F
Forecast: 66 / 77 °F
Wind: No wind

Location: Washington-Dulles International Airport

Current Time: Jul 4, 2015 at 10:43:15 AM

Latest Report: Jul 4, 2015 at 9:52 AM


Visibility: 5 mi

Pressure: 29.91 "Hg

Humidity: 93%

Dew point: 68 °F

Location of RestonLocation

Historic Weather in Reston — Graph

°F

Reston temperature yesterday

Maximum temperature yesterday: 78 °F (at 1:52 PM)
Minimum temperature yesterday: 59 °F (at 5:59 AM)
Average temperature yesterday: 70 °F

Past Weeks' High & Low Weather Summary

 TemperatureHumidityPressure
High93 °F (Jun 23, 3:52 PM)100% (Jul 1, 6:56 AM)30.11 "Hg (Jul 1, 6:56 AM)
Low55 °F (Jun 29, 3:52 AM)36% (Jun 29, 2:52 PM)29.67 "Hg (Jun 28, 3:52 AM)
Average74 °F74%29.92 "Hg
* Reported Jun 19 8:52 AM — Jul 4 8:52 AM, Reston, Weather by CustomWeather, © 2015

Note: Actual official high and low records may vary slightly from our data, if they occured in-between our weather recording intervals... More about our weather records

Advertising

Reston weather history for previous 24 hours

 ConditionsComfort  
Time TempWeatherWind HumidityBarometerVisibility
8:52 AM
Sat, Jul 4
68 °FHeavy rain. Fog.No wind93%29.91 "Hg1 mi
7:52 AM70 °FFog.3 mph90%29.89 "Hg4 mi
6:52 AM69 °FFog.No wind93%29.88 "Hg6 mi
5:52 AM69 °FMostly cloudy.No wind90%29.88 "Hg7 mi
4:52 AM70 °FMostly cloudy.No wind87%29.88 "Hg8 mi
3:52 AM69 °FOvercast.No wind87%29.88 "Hg8 mi
2:52 AM69 °FMostly cloudy.No wind90%29.89 "Hg8 mi
1:52 AM69 °FPartly cloudy.No wind87%29.91 "Hg9 mi
12:52 AM69 °FLight rain. Overcast.No wind87%29.91 "Hg9 mi
11:52 PM
Fri, Jul 3
70 °FMostly cloudy.3 mph81%29.93 "Hg9 mi
10:52 PM69 °FMostly cloudy.5 mph84%29.93 "Hg9 mi
9:52 PM71 °FLight rain. Mostly cloudy.6 mph76%29.93 "Hg10 mi
8:52 PM71 °FMore clouds than sun.5 mph81%29.92 "Hg10 mi
7:52 PM72 °FOvercast.7 mph81%29.92 "Hg9 mi
6:52 PM72 °FLight rain. Mostly cloudy.No wind87%29.93 "Hg8 mi
5:52 PM76 °FMore clouds than sun.6 mph64%29.94 "Hg10 mi
4:52 PM77 °FCloudy.5 mph62%29.94 "Hg10 mi
3:52 PM78 °FCloudy.5 mph58%29.95 "Hg10 mi
2:52 PM78 °FMostly cloudy.5 mph56%29.96 "Hg10 mi
1:52 PM78 °FBroken clouds.6 mph58%29.98 "Hg10 mi
12:52 PM77 °FScattered clouds.9 mph60%29.99 "Hg10 mi
11:52 AM76 °FScattered clouds.6 mph62%29.99 "Hg10 mi
10:52 AM75 °FBroken clouds.7 mph66%29.99 "Hg10 mi
Weather by CustomWeather, © 2015

See weather overviewHow to use our weather pages